Regional Weather Roundup
Issued by NWS

Home | Current Version | Previous Version | Graphics & Text | Print | Product List | Glossary On
Versions: 1 2 3 4 5 6 7 8 9 10 11 12 13 14 15 16 17 18 19 20 21 22 23 24 25 26 27 28 29 30 31 32 33 34 35 36 37 38 39 40 41 42 43 44 45 46 47 48 49 50
000
ASUS43 KIND 251859
RWRIN

WEATHER ROUNDUP FOR INDIANA
NATIONAL WEATHER SERVICE INDIANAPOLIS IN
300 PM EDT FRI MAY 25 2018

NOTE: "FAIR" INDICATES FEW OR NO CLOUDS BELOW 12,000 FEET WITH NO
SIGNIFICANT WEATHER AND/OR OBSTRUCTIONS TO VISIBILITY.

* - STATION DOES NOT REPORT WEATHER SUCH AS PRECIPITATION OR FOG.

+ - STATION NOT QUALITY CONTROLLED BY THE NATIONAL WEATHER SERVICE.
    USE DATA WITH CAUTION...ESPECIALLY DEWPOINT AND RELATIVE
    HUMIDITY OBSERVATIONS.

INZ001>003-010>013-019-020-252000-
NORTHWEST INDIANA

CITY           SKY/WX    TMP DP  RH WIND       PRES   REMARKS
GARY /AIRPORT/ MOSUNNY   90  50  25 S8        29.88F
KNOX *+        FAIR      86  55  35 CALM      29.89F
MICHIGAN CITY+ FAIR      86  57  37 S5        29.89F
MONTICELLO +   FAIR      88  50  27 CALM      29.89F

$$

LMZ046-743>745-252000-
SOUTHERN LAKE MICHIGAN

STATION/POSITION TIME  TEMP    WIND        PRES    WAVE
                       AIR SEA DIR/SP/G            HT
                 (UTC) (F)     (DEG/KT/KT) (MB)    (FT)
BURNS HARBOR     1830   74      10/  5/  6 1012.9F
MICHIGAN CITY    1830   81     330/  4/  4   N/A
5NW MICH CITY    1850   75 66   70/  4/  4   N/A     0

$$

INZ004-005-014>016-021>024-252000-
NORTH CENTRAL INDIANA

CITY           SKY/WX    TMP DP  RH WIND       PRES   REMARKS
GOSHEN         FAIR      84  57  39 MISG      29.91F
SOUTH BEND     FAIR      85  58  39 VRB6      29.91F
WARSAW +       FAIR      82  52  34 CALM      29.92F

$$

INZ006>009-017-018-025>027-252000-
NORTHEAST INDIANA

CITY           SKY/WX    TMP DP  RH WIND       PRES   REMARKS
ANGOLA *+      FAIR      84  55  37 SW5       29.93F
AUBURN +       FAIR      84  52  32 SW5       29.95F
FORT WAYNE     FAIR      86  52  30 SW9       29.93F
KENDALLVILLE + FAIR      83  48  29 SW6       29.94F

$$

INZ028-029-035-036-043>045-051>053-252000-
WEST CENTRAL INDIANA

CITY           SKY/WX    TMP DP  RH WIND       PRES   REMARKS
GREENCASTLE +  FAIR      84  55  37 CALM      29.93F
LAFAYETTE      FAIR      86  54  33 CALM      29.89F
TERRE HAUTE    FAIR      89  57  33 VRB3      29.90F

$$

INZ030>032-037>040-046>048-054>057-064-065-252000-
CENTRAL INDIANA

CITY           SKY/WX    TMP DP  RH WIND       PRES   REMARKS
COLUMBUS       SUNNY     84  50  30 S6        29.95F
FRANKFORT +    FAIR      90  56  31 SW5       29.94F
GREENWOOD *+   FAIR      85  55  36 W8        29.95F
INDIANAPOLIS   FAIR      86  55  34 VRB6      29.93F
-EAGLE CREEK   FAIR      87  56  34 W8        29.93F
KOKOMO +       FAIR      87  52  29 SW6       29.93F
SHELBYVILLE    FAIR      87  54  32 VRB6      29.94F

$$

INZ033-034-041-042-049-050-058-059-252000-
EAST CENTRAL INDIANA

CITY           SKY/WX    TMP DP  RH WIND       PRES   REMARKS
MUNCIE         FAIR      88  52  29 S8        29.94F
RICHMOND +     FAIR      82  54  36 SW6G18    29.98F

$$

INZ060-061-067>069-081>083-085>088-252000-
SOUTHWEST INDIANA

CITY           SKY/WX    TMP DP  RH WIND       PRES   REMARKS
EVANSVILLE     FAIR      86  64  47 MISG      29.92F
HUNTINGBURG +  FAIR      87  59  38 S8        29.93F

$$

INZ062-063-066-070>080-084-089>092-252000-
SOUTH CENTRAL AND SOUTHEAST INDIANA

CITY           SKY/WX    TMP DP  RH WIND       PRES   REMARKS
BLOOMINGTON    FAIR      85  58  39 SE3       29.94F
FRENCH LICK *+ FAIR      84  43  23 S3        29.95F
SEYMOUR +      FAIR      88  57  35 S5        29.94

$$





USA.gov is the U.S. government's official web portal to all federal, state and local government web resources and services.